Home > Weather > Taylors > Past weeks

Flag for USA Weather for the Past 2 Weeks in Taylors, South Carolina, USA

Now
71 °F

Overcast.


Feels Like: 69 °F
Forecast: 66 / 79 °F
Wind: 12 mph from West

Location: Greenville-Spartanburg Airport

Current Time: May 2, 2016 at 12:12:31 AM

Latest Report: May 1, 2016 at 10:53 PM


Visibility: 10 mi

Pressure: 29.98 "Hg

Humidity: 87%

Dew Point: 67 °F

Location of TaylorsLocation

Historic Weather in Taylors — Graph

°F

Taylors Temperature Yesterday

Maximum temperature yesterday: 82 °F (at 3:53 PM)
Minimum temperature yesterday: 63 °F (at 12:53 AM)
Average temperature yesterday: 71 °F

High & Low Weather Summary for the Past Weeks

 TemperatureHumidityPressure
High86 °F (Apr 19, 2:53 PM)100% (Apr 23, 6:53 AM)30.42 "Hg (Apr 23, 6:53 AM)
Low43 °F (Apr 17, 5:53 AM)17% (Apr 19, 1:53 PM)29.77 "Hg (Apr 27, 4:53 PM)
Average68 °F59%30.02 "Hg
* Reported Apr 16 9:53 PM — May 1 9:53 PM, Taylors, Weather by CustomWeather, © 2016

Note: Actual official high and low records may vary slightly from our data, if they occured in-between our weather recording intervals... More about our weather records

Advertising

Taylors Weather History for the Previous 24 Hours

Scroll right to see more
 ConditionsComfort  
Time TempWeatherWind HumidityBarometerVisibility
9:53 PM
Sun, May 1
73 °FPassing clouds.3 mph79%29.98 "Hg10 mi
8:53 PM75 °FPartly sunny.7 mph74%29.98 "Hg10 mi
7:53 PM76 °FSunny.5 mph69%29.96 "Hg10 mi
6:53 PM78 °FPassing clouds.9 mph62%29.96 "Hg10 mi
5:53 PM80 °FScattered clouds.8 mph58%29.94 "Hg10 mi
4:53 PM80 °FBroken clouds.9 mph56%29.94 "Hg10 mi
3:53 PM82 °FPassing clouds.10 mph53%29.95 "Hg10 mi
2:53 PM81 °FPassing clouds.10 mph54%29.96 "Hg10 mi
1:53 PM79 °FBroken clouds.10 mph62%29.99 "Hg10 mi
12:53 PM77 °FBroken clouds.3 mph66%30.01 "Hg10 mi
11:53 AM74 °FPartly sunny.8 mph76%30.02 "Hg10 mi
11:03 AM71 °FMostly cloudy.5 mph87%30.05 "Hg10 mi
10:53 AM71 °FPartly sunny.5 mph84%30.03 "Hg10 mi
9:53 AM67 °FCloudy.No wind87%30.02 "Hg10 mi
8:53 AM63 °FLight rain. Overcast.3 mph93%30.02 "Hg10 mi
7:53 AM64 °FOvercast.5 mph94%30.01 "Hg10 mi
6:53 AM63 °FLight rain. Fog.5 mph97%30.00 "Hg4 mi
5:53 AM63 °FStrong thunderstorms. Fog.13 mph93%29.98 "Hg1 mi
4:53 AM63 °FThundershowers. Low clouds.7 mph93%29.97 "Hg8 mi
3:53 AM63 °FMostly cloudy.8 mph93%29.98 "Hg10 mi
2:53 AM63 °FLow clouds.7 mph97%30.00 "Hg10 mi
1:53 AM63 °FMostly cloudy.5 mph97%30.01 "Hg10 mi
12:53 AM63 °FLight rain. Fog.6 mph97%30.02 "Hg6 mi
Weather by CustomWeather, © 2016

See weather overviewHow to use our weather pages